Weather History for Ainsworth, NE

Change the Weather History Date:

Saturday, August 24, 2013

  Actual Average Record
Temperature  
Mean Temperature 80 °F -  
Max Temperature 92 °F 83 °F 100 °F (2006)
Min Temperature 69 °F 59 °F 47 °F (2010)
Cooling Degree Days 15    
Growing Degree Days 30 (Base 50)    
Moisture  
Dew Point 66 °F    
Average Humidity 63    
Maximum Humidity 87    
Minimum Humidity 39    
Precipitation  
Precipitation 0.00 in - - ()
Sea Level Pressure  
Sea Level Pressure 29.92 in    
Wind  
Wind Speed 16 mph (South)    
Max Wind Speed 20 mph    
Max Gust Speed 28 mph    
Visibility 10 miles    
Events      
Averages and records for this station are not official NWS values.
T = Trace of Precipitation, MM = Missing Value Source: NWS Daily Summary

Daily Weather History Graph

Daily Weather History Graph

Search for Another Location

Airport:

Trip Planner

Search our weather history database for the weather conditions in past years. The results will help you decide how hot, cold, wet, or windy it might be!

Date:

Astronomy

Aug. 24, 2013 Rise Set
Actual Time 6:56 AM CDT 8:27 PM CDT
Civil Twilight 6:27 AM CDT 8:56 PM CDT
Nautical Twilight 5:51 AM CDT 9:32 PM CDT
Astronomical Twilight 5:13 AM CDT 10:09 PM CDT
Moon 10:15 PM CDT (8/24) 11:04 AM CDT (8/24)
Length of Visible Light 14h 29m
Length of Day
13h 30m
Waning Gibbous, 84% of the Moon is Illuminated
Aug 24
Waning Gibbous
Aug 28
Last Quarter
Sep 5
New
Sep 12
First Quarter
Sep 19
Full

Hourly Weather History & Observations

Time (CDT) Temp. Heat Index Dew Point Humidity Pressure Visibility Wind Dir Wind Speed Gust Speed Precip Events Conditions
12:15 AM 75.0 °F - 70.5 °F 86% 29.92 in 10.0 mi SSE 16.1 mph 20.7 mph N/A   Clear
12:35 AM 74.7 °F - 70.7 °F 87% 29.92 in 10.0 mi SSE 13.8 mph 19.6 mph N/A   Clear
12:55 AM 74.5 °F - 70.5 °F 87% 29.92 in 10.0 mi SSE 16.1 mph - N/A   Clear
1:15 AM 74.3 °F - 70.3 °F 87% 29.92 in 10.0 mi South 11.5 mph 20.7 mph N/A   Clear
1:35 AM 74.3 °F - 70.3 °F 87% 29.92 in 10.0 mi South 12.7 mph 21.9 mph N/A   Clear
1:55 AM 74.3 °F - 70.0 °F 86% 29.91 in 10.0 mi South 13.8 mph 21.9 mph N/A   Scattered Clouds
2:15 AM 74.5 °F - 69.8 °F 85% 29.91 in 10.0 mi South 15.0 mph 21.9 mph N/A   Mostly Cloudy
2:35 AM 74.3 °F - 69.3 °F 84% 29.90 in 10.0 mi South 17.3 mph 20.7 mph N/A   Overcast
2:55 AM 74.3 °F - 68.9 °F 83% 29.90 in 10.0 mi South 17.3 mph - N/A   Mostly Cloudy
3:15 AM 73.9 °F - 68.4 °F 83% 29.90 in 10.0 mi South 16.1 mph 23.0 mph N/A   Scattered Clouds
3:35 AM 73.6 °F - 68.0 °F 83% 29.90 in 10.0 mi South 17.3 mph 21.9 mph N/A   Clear
3:55 AM 73.4 °F - 68.0 °F 83% 29.89 in 10.0 mi South 17.3 mph - N/A   Clear
4:15 AM 72.9 °F - 67.3 °F 83% 29.89 in 10.0 mi South 16.1 mph 21.9 mph N/A   Clear
4:35 AM 72.5 °F - 66.9 °F 83% 29.90 in 10.0 mi South 16.1 mph - N/A   Clear
4:55 AM 72.1 °F - 66.7 °F 83% 29.90 in 10.0 mi South 18.4 mph - N/A   Clear
5:15 AM 71.8 °F - 66.2 °F 83% 29.90 in 10.0 mi South 15.0 mph - N/A   Clear
5:35 AM 71.2 °F - 65.7 °F 82% 29.89 in 10.0 mi South 17.3 mph - N/A   Clear
5:55 AM 70.9 °F - 64.8 °F 81% 29.89 in 10.0 mi South 15.0 mph - N/A   Clear
6:15 AM 70.9 °F - 64.2 °F 79% 29.89 in 10.0 mi South 13.8 mph - N/A   Clear
6:35 AM 70.7 °F - 63.5 °F 78% 29.90 in 10.0 mi South 13.8 mph - N/A   Clear
6:55 AM 70.2 °F - 63.0 °F 78% 29.90 in 10.0 mi South 12.7 mph - N/A   Clear
7:15 AM 69.8 °F - 62.4 °F 77% 29.90 in 10.0 mi South 12.7 mph - N/A   Clear
7:35 AM 69.8 °F - 62.1 °F 76% 29.91 in 10.0 mi South 9.2 mph - N/A   Clear
7:55 AM 70.9 °F - 61.7 °F 73% 29.91 in 10.0 mi South 13.8 mph 18.4 mph N/A   Clear
8:15 AM 71.4 °F - 61.7 °F 71% 29.91 in 10.0 mi South 17.3 mph 26.5 mph N/A   Clear
8:35 AM 72.5 °F - 62.1 °F 70% 29.91 in 10.0 mi South 15.0 mph 20.7 mph N/A   Clear
8:55 AM 73.6 °F - 62.1 °F 67% 29.91 in 10.0 mi South 16.1 mph - N/A   Clear
9:15 AM 75.0 °F - 62.6 °F 65% 29.92 in 10.0 mi South 12.7 mph 20.7 mph N/A   Clear
9:35 AM 76.1 °F - 62.4 °F 62% 29.92 in 10.0 mi SSW 15.0 mph 19.6 mph N/A   Clear
9:55 AM 77.2 °F - 62.8 °F 61% 29.92 in 10.0 mi SSW 16.1 mph 24.2 mph N/A   Clear
10:15 AM 78.4 °F - 63.3 °F 60% 29.92 in 10.0 mi South 17.3 mph 20.7 mph N/A   Clear
10:35 AM 79.7 °F - 63.9 °F 58% 29.93 in 10.0 mi SSW 15.0 mph 20.7 mph N/A   Clear
10:55 AM 80.8 °F 82.5 °F 64.9 °F 58% 29.94 in 10.0 mi South 12.7 mph 18.4 mph N/A   Clear
11:15 AM 81.9 °F 83.4 °F 64.4 °F 55% 29.94 in 10.0 mi South 15.0 mph - N/A   Clear
11:35 AM 83.3 °F 85.1 °F 65.1 °F 54% 29.95 in 10.0 mi South 15.0 mph 18.4 mph N/A   Clear
11:55 AM 84.2 °F 86.1 °F 65.1 °F 53% 29.95 in 10.0 mi South 12.7 mph - N/A   Clear
12:15 PM 85.5 °F 87.6 °F 66.2 °F 52% 29.95 in 10.0 mi South 17.3 mph 20.7 mph N/A   Clear
12:35 PM 86.4 °F 88.7 °F 66.4 °F 51% 29.95 in 10.0 mi South 15.0 mph 20.7 mph N/A   Clear
12:55 PM 87.6 °F 90.1 °F 66.6 °F 49% 29.95 in 10.0 mi South 18.4 mph - N/A   Clear
1:15 PM 88.7 °F 91.5 °F 66.6 °F 48% 29.94 in 10.0 mi SSW 16.1 mph 21.9 mph N/A   Clear
1:35 PM 89.8 °F 92.5 °F 66.7 °F 46% 29.94 in 10.0 mi South 16.1 mph - N/A   Clear
1:55 PM 90.1 °F 92.3 °F 65.8 °F 44% 29.94 in 10.0 mi South 12.7 mph 20.7 mph N/A   Clear
2:15 PM 90.7 °F 92.8 °F 65.5 °F 43% 29.94 in 10.0 mi South 17.3 mph 23.0 mph N/A   Clear
2:35 PM 90.9 °F 92.7 °F 64.6 °F 42% 29.94 in 10.0 mi South 19.6 mph 25.3 mph N/A   Clear
2:55 PM 90.9 °F 92.7 °F 65.1 °F 42% 29.94 in 10.0 mi South 15.0 mph 24.2 mph N/A   Clear
3:15 PM 91.4 °F 92.4 °F 63.5 °F 39% 29.94 in 10.0 mi South 18.4 mph 26.5 mph N/A   Clear
3:35 PM 91.6 °F 93.5 °F 64.9 °F 41% 29.94 in 10.0 mi South 19.6 mph 25.3 mph N/A   Clear
3:55 PM 91.4 °F 93.6 °F 65.3 °F 42% 29.94 in 10.0 mi South 17.3 mph 25.3 mph N/A   Clear
4:15 PM 91.6 °F 93.9 °F 65.5 °F 42% 29.92 in 10.0 mi South 18.4 mph 26.5 mph N/A   Clear
4:35 PM 91.8 °F 94.2 °F 65.5 °F 42% 29.92 in 10.0 mi South 17.3 mph 24.2 mph N/A   Clear
4:55 PM 91.9 °F 93.3 °F 64.0 °F 39% 29.92 in 10.0 mi South 18.4 mph - N/A   Clear
5:15 PM 91.8 °F 93.8 °F 64.8 °F 41% 29.91 in 10.0 mi South 18.4 mph 25.3 mph N/A   Clear
5:35 PM 91.2 °F 93.7 °F 66.0 °F 43% 29.91 in 10.0 mi SSE 17.3 mph 24.2 mph N/A   Clear
5:55 PM 90.0 °F 93.6 °F 67.8 °F 48% 29.91 in 10.0 mi SSE 19.6 mph 24.2 mph N/A   Clear
6:15 PM 89.4 °F 93.1 °F 67.8 °F 49% 29.91 in 10.0 mi SSE 18.4 mph 27.6 mph N/A   Clear
6:35 PM 88.7 °F 91.9 °F 67.3 °F 49% 29.91 in 10.0 mi SSE 18.4 mph 26.5 mph N/A   Clear
6:55 PM 88.5 °F 91.6 °F 67.3 °F 49% 29.91 in 10.0 mi SSE 18.4 mph 25.3 mph N/A   Clear
7:15 PM 87.6 °F 90.4 °F 66.9 °F 50% 29.91 in 10.0 mi SSE 16.1 mph 23.0 mph N/A   Clear
7:35 PM 86.7 °F 89.6 °F 67.1 °F 52% 29.90 in 10.0 mi SSE 12.7 mph 18.4 mph N/A   Clear
7:55 PM 85.6 °F 88.8 °F 67.6 °F 55% 29.90 in 10.0 mi SSE 12.7 mph 21.9 mph N/A   Clear
8:15 PM 85.1 °F 88.5 °F 68.2 °F 57% 29.90 in 10.0 mi SSE 13.8 mph - N/A   Clear
8:35 PM 84.0 °F 87.6 °F 68.5 °F 60% 29.90 in 10.0 mi SSE 12.7 mph - N/A   Clear
8:55 PM 83.3 °F 86.6 °F 68.4 °F 61% 29.91 in 10.0 mi SSE 13.8 mph - N/A   Clear
9:15 PM 83.1 °F 86.3 °F 68.2 °F 61% 29.92 in 10.0 mi SSE 15.0 mph 18.4 mph N/A   Clear
9:35 PM 82.8 °F 85.5 °F 67.6 °F 60% 29.92 in 10.0 mi SSE 15.0 mph 23.0 mph N/A   Clear
9:55 PM 82.4 °F 85.0 °F 67.3 °F 60% 29.94 in 10.0 mi SSE 17.3 mph 21.9 mph N/A   Clear
10:15 PM 81.7 °F 84.2 °F 66.9 °F 61% 29.94 in 10.0 mi South 16.1 mph - N/A   Clear
10:35 PM 81.0 °F 83.2 °F 66.2 °F 61% 29.94 in 10.0 mi South 17.3 mph 23.0 mph N/A   Clear
10:55 PM 80.4 °F 82.3 °F 65.5 °F 60% 29.94 in 10.0 mi South 16.1 mph 24.2 mph N/A   Clear
11:15 PM 79.7 °F - 64.9 °F 61% 29.95 in 10.0 mi South 17.3 mph - N/A   Clear
11:35 PM 79.7 °F - 64.4 °F 59% 29.95 in 10.0 mi South 19.6 mph - N/A   Clear
11:55 PM 79.5 °F - 64.0 °F 59% 29.95 in 10.0 mi South 19.6 mph - N/A   Clear